Regional Weather Roundup
Issued by NWS

Home | Current Version | Previous Version | Text Only | Print | Product List | Glossary Off
Versions: 1 2 3 4 5 6 7 8 9 10 11 12 13 14 15 16 17 18 19 20 21 22 23 24 25 26 27 28 29 30 31 32 33 34 35 36 37 38 39 40 41 42 43 44 45 46 47 48 49 50

000
ASUS43 KOAX 010910
RWRNE

WEATHER ROUNDUP FOR NEBRASKA
NATIONAL WEATHER SERVICE OMAHA NE
300 AM CST SUN FEB 01 2015

NOTES: SATELLITE DATA IS BEING USED TO AUGMENT CLOUD COVER ABOVE
       12000 FEET.
       "FAIR" INDICATES FEW OR NO CLOUDS BELOW 12,000 FEET WITH NO
       SIGNIFICANT WEATHER AND/OR OBSTRUCTIONS TO VISIBILITY.

  * THESE STATIONS DO NOT REPORT WEATHER SUCH AS RAIN...SNOW OR FOG.

NEZ001>004-019>022-054>056-011000-
NEBRASKA PANHANDLE

CITY           SKY/WX    TMP DP  RH WIND       PRES   REMARKS
SCOTTSBLUFF    CLOUDY    24  19  81 N14       30.09R WCI  12
ALLIANCE       CLOUDY    15  10  80 N20       30.07R WCI  -2
CHADRON        LGT SNOW  13   9  84 NE8       30.17R FOG     WCI   2
KIMBALL        CLOUDY    23  20  86 N25       30.00R WCI   7
SIDNEY         CLOUDY    21  17  84 N21G26    30.02R WCI   5
$$

NEZ057>060-069>072-079>082-011000-
SOUTHWEST NEBRASKA

CITY           SKY/WX    TMP DP  RH WIND       PRES   REMARKS
NORTH PLATTE   LGT SNOW  14   9  80 N25G32    30.03R WCI  -5
IMPERIAL       MOCLDY    17  12  80 N21G29    30.03R WCI   0
LEXINGTON      LGT SNOW  19  16  87 N25G32    29.96R WCI   1
MCCOOK         LGT SNOW  20  15  81 NW26G33   29.98R WCI   2
OGALLALA       CLOUDY    17  13  85 N23       30.06R WCI  -1
$$

NEZ005>010-023>029-035>040-094-011000-
NORTH CENTRAL NEBRASKA

CITY           SKY/WX    TMP DP  RH WIND       PRES   REMARKS
VALENTINE      LGT SNOW   8   3  80 N20       30.13R VSB 1   WCI -11
AINSWORTH      LGT SNOW   8   5  86 N24G30    30.09R WCI -13
BROKEN BOW     HAZE      15  10  80 N36G43    29.97R VSB 1/2 WCI  -7
O`NEILL        LGT SNOW  11   8  88 N28G35    30.05R WCI -11
ORD            LGT SNOW  15  10  80 N29G39    29.98R VSB 1   WCI  -5
THEDFORD       LGT SNOW  12   9  85 N23       30.06R WCI  -7
$$

NEZ041-046>049-061>064-073>077-083>087-011000-
SOUTH CENTRAL NEBRASKA

CITY           SKY/WX    TMP DP  RH WIND       PRES   REMARKS
GRAND ISLAND   LGT SNOW  24  21  88 N29G36    29.89R VSB 1   WCI   7
AURORA         LGT SNOW  27  26  99 N25       29.86R VSB 1   WCI  11
HASTINGS       LGT SNOW  24  21  88 N28G37    29.85R FOG     WCI   7
HEBRON         LGT SNOW  32  31  95 N8        29.79S WCI  25
HOLDREGE       LGT SNOW  22  19  87 N23G30    29.91R WCI   6
KEARNEY *      CLOUDY    21  18  86 N29G37    29.91R WCI   3
YORK           LGT SNOW  28  28 100 N15G23    29.83R WCI  17
$$

NEZ011>018-030>034-042>045-011000-
NORTHEAST NEBRASKA

CITY           SKY/WX    TMP DP  RH WIND       PRES   REMARKS
NORFOLK        LGT SNOW  25  22  88 N23G29    29.91R VSB 3/4 WCI  10
ALBION         LGT SNOW  20  16  83 N22G30    29.92R WCI   4
BLAIR          LGT SNOW  33  32  96 N7        29.80F WCI  27
FREMONT        LGT SNOW  33  32  98 N6        29.83F WCI  27
TEKAMAH        LGT SNOW  31  29  92 N20       29.85F FOG     WCI  19
WAYNE          LGT SNOW  25  23  91 N21       29.92S WCI  10
$$

NEZ050>053-065>068-078-088>093-011000-
SOUTHEAST NEBRASKA

CITY           SKY/WX    TMP DP  RH WIND       PRES   REMARKS
LINCOLN        LGT SNOW  32  31  96 N9        29.81S FOG     WCI  24
OMAHA EPPLEY   LGT SNOW  33  32  96 NE5       29.82F VSB 1   WCI  29
BEATRICE       LGT SNOW  32  32 100 N6        29.78R WCI  26
FALLS CITY     LGT SNOW  32  31  96 CALM      29.77F VSB 3/4
NEBRASKA CITY  LGT SNOW  32  32 100 NE5       29.79S VSB 3/4 WCI  27
PLATTSMOUTH    LGT SNOW  32  31  96 NE5       29.79F WCI  27
$$

NEZ044-045-051>053-067-011000-
OMAHA AREA

CITY           SKY/WX    TMP DP  RH WIND       PRES   REMARKS
OMAHA EPPLEY   LGT SNOW  33  32  96 NE5       29.82F VSB 1   WCI  29
BLAIR          LGT SNOW  33  32  96 N7        29.80F WCI  27
FREMONT        LGT SNOW  33  32  98 N6        29.83F WCI  27
MILLARD        LGT SNOW  33  32  96 CALM      29.81F
OFFUTT AFB     LGT SNOW  32  32  98 NE7       29.80F FOG     WCI  26
PLATTSMOUTH    LGT SNOW  32  31  96 NE5       29.79F WCI  27
WAHOO          LGT SNOW  32  31  95 N10       29.81F WCI  24
$$


USA.gov is the U.S. government's official web portal to all federal, state and local government web resources and services.